AirNav   GEt a FREE Bose Revolve Bluetooth Speaker
 
 801 users online  

74R Horizon Airport
San Antonio, Texas, USA

GOING TO SAN ANTONIO?


FAA INFORMATION EFFECTIVE 06 DECEMBER 2018

Location

FAA Identifier: 74R
Lat/Long: 29-17-04.5000N / 098-29-53.9000W
29-17.075000N / 098-29.898333W
29.2845833 / -98.4983056
(estimated)
Elevation: 551 ft. / 168 m (estimated)
Variation: 07E (1985)
From city: 9 miles S of SAN ANTONIO, TX
Time zone: UTC -6 (UTC -5 during Daylight Saving Time)
Zip code: 78221

Airport Operations

Airport use: Open to the public
Activation date: 04/1945
Control tower: no
ARTCC: HOUSTON CENTER
FSS: SAN ANGELO FLIGHT SERVICE STATION
NOTAMs facility: SJT (NOTAM-D service available)
Attendance: CONTINUOUS
Wind indicator: yes
Segmented circle: no

Airport Communications

CTAF: 122.9
WX ASOS at SSF (3 nm NE): PHONE 210-927-9391
WX ASOS at SAT (15 nm N): PHONE 210-805-5583
WX AWOS-3 at CVB (19 nm W): 119.25 (830-931-0232)
WX AWOS-3 at PEZ (20 nm S): 118.575 (830-569-5749)

Nearby radio navigation aids

VOR radial/distance  VOR name  Freq  Var
SSFr290/(3.3)STINSON VOR108.4009E
RNDr213/18.0RANDOLPH VORTAC112.3005E
SATr177/21.7SAN ANTONIO VORTAC116.8008E

 
NDB name  Hdg/Dist  Freq  Var  ID
DEVINE062/24.735907EHHH .... .... ....
HONDO091/35.632908EHMA .... -- .-

Airport Services

Parking: hangars and tiedowns
Bottled oxygen: NONE
Bulk oxygen: NONE

Runway Information

Runway 11/29

Dimensions: 2360 x 80 ft. / 719 x 24 m
Surface: turf, in good condition
Gradient: W
RUNWAY 11  RUNWAY 29
Latitude: 29-17.161922N29-16.982842N
Longitude: 098-30.013272W098-29.618742W
Elevation: 551.0 ft.540.0 ft.
Gradient: 0.4%0.5% UP
Traffic pattern: leftleft
Runway heading: 110 magnetic, 117 true290 magnetic, 297 true
Obstructions: 5 ft. fence, 119 ft. from runway, 137 ft. right of centerline, 23:1 slope to clear19 ft. trees

Runway 16/34

Dimensions: 2250 x 100 ft. / 686 x 30 m
Surface: turf, in good condition
Gradient: N
RUNWAY 16  RUNWAY 34
Latitude: 29-17.255087N29-16.899377N
Longitude: 098-30.046423W098-29.924860W
Elevation: 551.0 ft.529.0 ft.
Gradient: 0.4%1.0% UP
Traffic pattern: leftleft
Runway heading: 156 magnetic, 163 true336 magnetic, 343 true
Obstructions: 36 ft. trees, 110 ft. from runway, 70 ft. left of centerline, 3:1 slope to clear46 ft. trees, 522 ft. from runway, 11:1 slope to clear

Airport Ownership and Management from official FAA records

Ownership: Privately-owned
Owner: TOUDOUZE INVESTMENTS INC
PO BOX 380332
SAN ANTONIO, TX 78268
Phone (210) 859-9946
MANAGING PARTNER WILLIAM S. TOUDOUZE.
Manager: 13680 PLEASANTON RD.
SAN ANTONIO, TX 78221
Phone (210) 859-9946

Airport Operational Statistics

Aircraft based on the field: 3
Single engine airplanes: 3
    
Aircraft operations: 140/year *
71% local general aviation
29% transient general aviation
* for 12-month period ending 02 February 2017

Additional Remarks

RY THLDS MARKED BY 3 FT WHITE CONES.
NO LINE OF SIGHT BETWEEN RYS 34 & 29
WILD HOGS ON OR INVOF ARPT.
FOR CD CTC SAT APCH AT 210-805-5516.
NO COMMERCIAL FLIGHT SERVICE.

Instrument Procedures

There are no published instrument procedures at 74R.

Some nearby airports with instrument procedures:

KSSF - Stinson Municipal Airport (3 nm NE)
KSKF - Kelly Field Airport (7 nm NW)
KSAT - San Antonio International Airport (15 nm N)
KRND - Randolph Air Force Base (19 nm NE)
KCVB - Castroville Municipal Airport (19 nm W)
KPEZ - Pleasanton Municipal Airport (20 nm S)
 
Loc | Ops | Rwys | IFR | FBO | Links
Com | Nav | Svcs | Stats | Notes


 
Area around 74R (Horizon Airport)
 
Road maps at: MapQuest Bing Google
 
Aerial photo
WARNING: Photo may not be current or correct
Aerial photo of 74R (Horizon Airport)
Photo by Bill Lux at Bull's Nest, Inc.
Photo taken 24-Oct-2013
looking east.

Do you have a better or more recent aerial photo of Horizon Airport that you would like to share? If so, please send us your photo.

 
Sectional chart

 
Airport distance calculator
Flying to Horizon Airport? Find the distance to fly.

From to 74R

Sunrise and sunset
Times for 14-Dec-2018
 Local
(UTC-6)
 Zulu
(UTC)
Morning civil twilight06:5512:55
Sunrise07:2113:21
Sunset17:3623:36
Evening civil twilight18:0200:02

Current date and time
Zulu (UTC)  15-Dec-2018 03:32:29
Local (UTC-6)  14-Dec-2018 21:32:29
 
METAR
KSSF 
3nm NE 
150253Z 31007KT 10SM CLR 13/M02 A3017 RMK AO2 SLP217 T01281017 51018
KSKF 
6nm NW 
150256Z AUTO 31010KT 10SM CLR 12/00 A3016 RMK AO2 SLP214 T01181004 52014 $
KSAT 
15nm N 
150251Z 31007KT 10SM CLR 11/00 A3018 RMK AO2 SLP212 T01060000 51018
KRND 
18nm NE 
150256Z AUTO 28008KT 10SM SCT039 11/01 A3017 RMK AO2 SLP218 T01110005 52017
KCVB 
19nm W 
150315Z AUTO 29008KT 10SM CLR 10/M02 A3022 RMK AO2 T00951016
KPEZ 
20nm S 
150315Z AUTO 31010G14KT 10SM CLR 11/00 A3020 RMK AO2 T01120002
TAF
KSSF 
3nm NE 
141721Z 1418/1518 31015G25KT P6SM BKN040 FM150000 32007KT P6SM SKC
KSKF 
6nm NW 
150210Z 1502/1608 31012KT 9999 FEW040 510102 QNH3013INS BECMG 1514/1515 33009KT 9999 SKC QNH3018INS TX19/1520Z TN02/1512Z
KSAT 
15nm N 
141721Z 1418/1524 32019G29KT P6SM BKN040 FM150000 32010KT P6SM SKC
KRND 
18nm NE 
150006Z 1500/1524 32010G15KT 9999 OVC025 QNH3005INS TEMPO 1500/1501 32015G25KT BECMG 1500/1501 32015G25KT 9999 BKN040 QNH3008INS BECMG 1504/1505 33010KT 9999 FEW050 QNH3015INS BECMG 1515/1516 33012G18KT 9999 SKC QNH3018INS TX15/1518Z TN02/1511Z LAST NO AMDS AFT 1501 NEXT 1710
NOTAMs
Click for the latest NOTAMs
NOTAMs are issued by the DoD/FAA and will open in a separate window not controlled by AirNav.

 

 
 

Would you like to see your business listed on this page?

 If your business provides an interesting product or service to pilots, flight crews, aircraft, or users of the Horizon Airport, you should consider listing it here.  To start the listing process, click on the button below
 
Add a business
 

Other Pages about Horizon Airport

Update a link
 
Copyright © AirNav, LLC. All rights reserved. Privacy Policy  Contact